Regional Weather Roundup
Issued by NWS

Home | Current Version | Previous Version | Graphics & Text | Print | Product List | Glossary On
Versions: 1 2 3 4 5 6 7 8 9 10 11 12 13 14 15 16 17 18 19 20 21 22 23 24 25 26 27 28
000
ASUS45 KSLC 031910
RWRUT

UTAH REGIONAL WEATHER ROUNDUP
NATIONAL WEATHER SERVICE SALT LAKE CITY UT
1200 PM MST SAT DEC 03 2016

UTZ001>011-023>025-032000-

NORTHERN UTAH

CITY           SKY/WX    TMP DP  RH WIND       PRES   REMARKS
BRIGHAM CITY     N/A     34  20  58 S8        30.31F WCI  27
HILL AFB       CLOUDY    29  20  69 SW6       30.29S WCI  23
LOGAN          CLOUDY   N/A N/A N/A N3        30.28F
OGDEN          CLOUDY    31  21  66 SE5       30.29F WCI  26
SALT LAKE CITY CLOUDY    32  21  64 SE8       30.29F WCI  25
TOOELE VALLEY  CLOUDY    32  27  80 CALM      30.29F
WENDOVER       MOSUNNY   36  18  48 SE6       30.30S WCI  31
HEBER CITY     CLOUDY    25  14  63 CALM      30.25F
WEST JORDAN    CLOUDY    30  26  84 S9        30.29S WCI  21

$$

UTZ011>015-024>027-032000-

CENTRAL/NORTHEAST UTAH

CITY           SKY/WX    TMP DP  RH WIND       PRES   REMARKS
PROVO AIRPORT  CLOUDY    28  18  66 E3        30.32F
MOAB/CANYONLAN SUNNY     37  17  44 N5        30.20F WCI  33
DELTA          PTSUNNY   30  19  64 CALM      30.29F
PRICE          CLOUDY    33   9  36 VRB5      30.16F WCI  29
RICHFIELD      CLOUDY    28  16  59 CALM      30.26F
ROOSEVELT      SUNNY     30  12  47 E6        30.22F WCI  24
VERNAL         SUNNY     28  14  55 S3        30.19F

$$

UTZ013>016-019>022-027-032000-

SOUTHERN UTAH

CITY           SKY/WX    TMP DP  RH WIND       PRES   REMARKS
BRYCE CANYON   NOT AVBL
CEDAR CITY     SUNNY     33  14  45 CALM      30.22F
MILFORD        SUNNY     33  17  51 N8        30.27F WCI  26
ST GEORGE      PTCLDY    41  16  36 SW3       30.27F
HANKSVILLE     SUNNY     36  14  41 CALM      30.24F
KANAB          SUNNY     45   9  23 NE7       30.23F
BLANDING       SUNNY     39  12  33 CALM      30.21F

$$

REGIONAL REPORTS     COLORADO/ARIZONA

CITY           SKY/WX    TMP DP  RH WIND       PRES   REMARKS
CRAIG, CO      CLOUDY    27  10  49 NE3       30.15F
GRAND JUNCTION SUNNY     36  21  54 S3        30.19F
RIFLE, CO      CLOUDY    30  17  58 CALM      30.19F
MONTROSE, CO   MOSUNNY   32  19  58 SE7       30.19F WCI  26
CORTEZ, CO     SUNNY     39  25  57 W9        30.12F WCI  33
COLORADO CITY    N/A     43  12  28 CALM      30.23F
PAGE, AZ       SUNNY     39   9  29 CALM      30.21F
GRAND CANYON   SUNNY     35  13  40 NE15      30.15F WCI  25
KINGMAN, AZ    SUNNY     47  11  23 N13       30.16F
FLAGSTAFF, AZ  SUNNY     36  19  50 E20G25    30.09F WCI  25

$$

REGIONAL REPORTS    NEVADA/IDAHO/WYOMING

CITY           SKY/WX    TMP DP  RH WIND       PRES   REMARKS
LAS VEGAS, NV  MOSUNNY   52   7  16 NE10      30.22F
ELY, NY        SUNNY     35   8  32 N3        30.26F
ELKO, NV       CLOUDY    33  14  45 SW6       30.31F WCI  28
POCATELLO, ID  CLOUDY    32  21  64 S13       30.23F WCI  22
BURLEY, ID     CLOUDY    38  24  57 W21       30.23F WCI  28
FORT BRIDGER,  CLOUDY    28  16  60 W22G32    30.15F WCI  14
EVANSTON, WY   CLOUDY    24  12  60 W24G30    30.16S WCI   8
ROCK SPRINGS,  SUNNY     24  12  60 W32G44    30.07F WCI   6

$$




USA.gov is the U.S. government's official web portal to all federal, state and local government web resources and services.